Location: Penticton
(49.5000°N, 119.5830°W)
Time: 23:55:29
(UTC-08:00)

Daily predictions for brighter satellites

Satellite Brightness Start Highest point End
(mag) Time Altitude Azimuth Time Altitude Azimuth Time Altitude Azimuth
MSX 4.0 16:56:26 10° SE 17:01:59 53° ENE 17:07:33 10° N
Cosmos 1844 4.0 17:00:05 10° NNW 17:05:37 46° NE 17:11:10 10° SE
EO 1 Del DPAF 3.8 17:03:25 10° N 17:07:15 61° WNW 17:11:02 10° SSW
Cosmos 1763 Rocket 4.4 17:03:48 10° SSE 17:08:14 29° E 17:12:38 10° NE
Cosmos 1484 Rocket 3.5 17:05:21 10° SE 17:08:51 32° ENE 17:12:25 10° N
Cosmos 1674 3.6 17:07:55 10° SSE 17:11:15 29° E 17:14:38 10° NNE
Resurs 01 Rocket 3.5 17:11:06 10° ENE 17:11:44 10° NE 17:12:23 10° NE
Cosmos 1766 Rocket 3.8 17:10:04 10° S 17:14:24 52° E 17:18:44 10° NNE
COSMOS 2455 4.0 17:09:03 10° WSW 17:14:37 37° NW 17:20:13 10° NNE
COSMOS 2441 4.5 17:11:44 10° SSE 17:16:29 55° ENE 17:21:13 10° N
Lacrosse 5 rocket 1.8 17:15:42 10° NW 17:19:10 37° NNE 17:22:48 10° E
COSMOS 2428 3.3 17:13:57 10° S 17:19:12 39° ESE 17:24:28 10° NE
COSMO-SKYMED 1 3.7 17:15:45 10° NE 17:19:16 23° E 17:22:45 10° SSE
Cosmos 2228 Rocket 3.2 17:16:30 10° N 17:20:49 50° ENE 17:25:07 10° SSE
CZ-4 R/B 1.6 17:17:01 10° S 17:20:52 74° WSW 17:24:48 10° NNW
Cosmos 1300 3.9 17:18:27 10° NNE 17:21:32 22° ENE 17:24:36 10° ESE
Cosmos 2237 4.5 17:18:55 10° S 17:24:24 51° ESE 17:29:56 10° NE
YAOGAN 1 2.6 17:21:14 10° SSE 17:25:34 87° ENE 17:29:55 10° NNW
Cosmos 2237 Rocket 3.7 17:22:31 10° SE 17:25:49 16° E 17:28:35 12° ENE
Thor Agena Rocket 3.7 17:23:52 10° NNE 17:29:05 58° ESE 17:34:12 10° S
Cosmos 1726 3.1 17:25:57 10° NNE 17:29:10 26° ENE 17:32:24 10° SE
MOS 1 4.5 17:23:37 10° SSE 17:29:16 82° WSW 17:34:59 10° NNW
SPOT 3 Rocket 3.7 17:27:12 10° SSE 17:32:21 80° WSW 17:37:34 10° NNW
MONITOR-E 4.2 17:30:36 10° SSE 17:33:44 57° ENE 17:36:52 10° N
Cosmos 1408 Rocket 3.6 17:31:35 10° S 17:36:03 86° E 17:40:30 10° N
USA 116 3.1 17:33:12 10° NNE 17:36:37 82° ESE 17:39:46 10° SSW
Cosmos 1125 Rocket 3.7 17:32:47 10° NNW 17:37:52 48° ENE 17:42:53 10° SE
Meteor 2-2 Rocket 4.2 17:32:44 10° N 17:38:23 69° ENE 17:44:00 10° SSE
ATLAS 3B R/B 4.0 17:32:20 10° W 17:38:53 32° NNW 17:45:11 10° NE
Cosmos 1814 Rocket 4.0 17:35:15 10° SSW 17:40:34 75° ESE 17:45:58 10° NNE
USA 215 3.4 17:35:16 10° SE 17:41:51 82° SSW 17:48:27 10° WNW
Cosmos 990 Rocket 4.4 17:36:41 10° NNW 17:41:55 68° WSW 17:47:07 10° S
IDEFIX/ARIANE 42P 3.6 17:41:32 10° S 17:46:35 51° W 17:51:43 10° NNW
Cosmos 2322 3.9 17:41:21 10° SSW 17:47:02 77° WNW 17:52:47 10° NNE
Meteor 1-28 Rocket 4.1 17:44:53 14° NE 17:47:20 27° E 17:50:33 10° SSE
Cosmos 332 Rocket 4.2 17:45:13 10° S 17:49:46 43° ESE 17:53:51 13° NE
NOSS 3-2 (A) 4.2 17:44:04 10° WSW 17:50:08 51° NW 17:56:41 11° NE
NOSS 3-2 (C) 4.1 17:47:17 10° WSW 17:53:25 57° NW 17:59:53 12° NE
Cosmos 2346 Rocket 4.5 17:48:28 10° S 17:54:38 63° E 18:00:47 10° NNE
SL-16 R/B 3.7 17:49:43 10° WSW 17:54:46 32° NW 17:59:50 10° NNE
Spot 2 Rocket 4.4 17:51:10 10° ESE 17:55:18 26° ENE 17:59:27 10° N
Cosmos 1844 Rocket 3.1 17:49:40 10° NNW 17:55:19 69° WSW 18:00:55 10° SSE
Cosmos 2058 3.9 17:52:19 10° SE 17:55:38 24° E 17:56:34 22° ENE
SJ-6B 3.4 17:52:40 10° SE 17:56:24 35° ENE 18:00:11 10° N
Cosmos 1743 Rocket 3.5 17:52:56 10° S 17:57:22 71° E 18:01:52 10° NNE
Tsikada Rocket 4.2 17:51:25 10° SSW 17:57:48 80° W 18:04:16 10° N
Cosmos 1328 Rocket 3.9 17:55:12 10° NNW 17:59:38 72° W 18:04:03 10° S
Cosmos 841 Rocket 3.5 17:55:44 10° S 18:00:57 65° ESE 18:05:58 11° NNE
Cosmos 2333 4.1 17:55:58 10° SSW 18:01:31 68° ESE 18:06:32 13° NNE
Cosmos 2142 Rocket 4.5 17:58:00 10° N 18:04:27 79° E 18:10:49 10° SSE
Cosmos 1515 Rocket 3.7 18:00:58 10° NNW 18:05:29 82° W 18:09:56 10° S
SKYMED 2 3.5 18:03:18 10° NNE 18:07:39 67° ESE 18:11:58 10° S
Orbus 7S? 4.1 18:06:16 10° NW 18:09:33 46° NNE 18:12:40 23° E
Cosmos 2360 Rocket 3.0 18:06:47 10° SW 18:12:12 48° NW 18:17:40 10° NNE
Cosmos 1980 4.2 18:07:10 10° S 18:12:22 39° ESE 18:15:06 24° ENE
ALOS 2.9 18:08:27 10° SE 18:12:38 34° ENE 18:16:50 10° N
Cosmos 1980 Rocket 4.5 18:11:15 10° WNW 18:14:10 14° NNW 18:17:07 10° N
Cosmos 44 4.3 18:11:10 10° S 18:15:37 29° ESE 18:16:36 27° E
FREGAT/IRIS 4.2 18:17:46 23° N 18:17:46 23° N 18:19:11 10° N
Cosmos 2151 3.0 18:12:13 10° S 18:16:18 51° E 18:19:07 19° NNE
Cosmos 1151 Rocket 3.0 18:14:41 10° N 18:18:59 85° WSW 18:23:15 10° S
CZ-4C R/B 4.0 18:14:12 10° NW 18:19:06 24° N 18:22:30 17° NE
Cosmos 371 Rocket 3.3 18:15:51 10° S 18:20:35 61° ESE 18:23:23 24° NE
Cosmos 1634 Rocket 4.2 18:15:50 10° NNW 18:22:02 74° W 18:28:11 10° S
Cosmos 2333 Rocket 2.3 18:17:11 10° S 18:22:39 53° ESE 18:25:43 25° NE
Cosmos 1500 Rocket 3.5 18:20:22 10° S 18:24:42 85° W 18:29:06 10° N
Cosmos 1340 Rocket 3.9 18:23:05 10° SSE 18:25:26 28° SE 18:25:26 28° SE
CENTAUR R/B 2.6 18:20:47 10° SW 18:27:03 86° NW 18:32:01 21° NE
FENGYUN 3A 3.8 18:22:59 10° SE 18:28:06 48° ENE 18:33:17 10° N
Cosmos 836 Rocket 4.4 18:23:01 10° SSW 18:28:13 71° ESE 18:31:41 22° NNE
Meteor 1-27 4.2 18:23:37 10° N 18:29:27 81° ENE 18:35:17 10° SSE
Lacrosse 5 2.6 18:28:04 10° W 18:32:56 44° NNW 18:35:01 29° NE
BREEZE M DEB (TANK) 2.9 18:31:49 10° W 18:34:17 27° SSW 18:34:35 26° SSW
SL-19 R/B 4.2 18:28:30 10° SSE 18:34:23 69° ENE 18:39:59 10° NNW
ATLAS 5 CENTAUR R/B 3.7 18:30:36 10° NW 18:34:37 20° N 18:35:59 19° NNE
SL-14 R/B 3.1 18:33:51 10° S 18:37:46 85° E 18:39:36 31° NNE
Cosmos 44 Rocket 3.3 18:34:10 10° SSW 18:39:14 64° SE 18:40:38 45° ENE
Cosmos 2278 Rocket 2.5 18:33:43 10° NNW 18:39:23 69° WSW 18:45:01 10° SSE
Meteor 2-10 3.9 18:34:37 10° NNW 18:39:43 86° WSW 18:44:52 10° S
Cosmos 2219 Rocket 2.1 18:34:05 10° SSW 18:39:44 86° ESE 18:43:10 25° NNE
Cosmos 2322 Rocket 4.4 18:36:18 10° W 18:40:15 19° NW 18:44:10 10° N
Timation 1 Rocket 4.2 18:36:41 10° NNW 18:42:43 77° ENE 18:47:29 17° SE
METEOR-M 4.2 18:37:29 10° S 18:42:50 77° WSW 18:48:14 10° NNW
Resurs 01 Rocket 1.5 18:46:15 47° SE 18:47:21 65° ENE 18:51:47 10° N
Cosmos 1900 4.2 18:43:30 10° NNW 18:48:26 65° NE 18:49:14 55° E
Cosmos 1763 Rocket 4.4 18:44:49 10° SW 18:49:50 47° WNW 18:54:07 14° NNE
Cosmos 372 Rocket 4.4 18:49:09 10° NNW 18:54:11 60° WSW 18:59:11 10° S
Cosmos 1943 Rocket 4.2 18:51:47 10° N 18:53:19 13° NNE 18:53:19 13° NNE
COSMO-SKYMED 1 3.7 18:51:30 10° N 18:55:36 42° WNW 18:59:42 10° SW
Cosmos 1300 4.5 18:53:52 10° NNW 18:57:20 33° W 19:00:47 10° SSW
NOSS 0 Rocket 3.8 18:51:08 10° SSW 18:57:22 84° ESE 19:00:13 35° NNE
Lacrosse 5 rocket 1.6 18:54:48 10° WNW 18:58:32 57° SW 18:58:43 56° SSW
Cosmos 1707 Rocket 3.5 18:56:24 10° N 19:00:21 73° N 19:00:21 73° N
Resurs 1-3 4.2 19:03:12 43° N 19:03:12 43° N 19:06:15 10° N
Cosmos 2084 3.8 18:59:13 10° SW 19:02:05 48° SSW 19:02:05 48° SSW
COSMOS 2428 3.7 18:58:02 10° WSW 19:03:27 43° NW 19:07:25 18° NNE
Lacrosse 4 Rocket 3.3 19:00:33 10° NNW 19:01:56 19° N 19:01:56 19° N
Cosmos 1726 4.4 19:01:17 10° NNW 19:04:28 26° W 19:07:39 10° SSW
Cosmos 2237 Rocket 2.1 19:03:25 10° SSW 19:09:03 89° SE 19:10:28 53° NNE
Cosmos 2369 Rocket 3.7 19:06:42 10° NNW 19:09:30 22° NNE 19:09:30 22° NNE
Cosmos 783 Rocket 4.4 19:06:26 10° SSW 19:11:45 86° ESE 19:12:23 70° NNE
Cosmos 540 Rocket 3.5 19:07:40 10° SSW 19:12:50 74° WNW 19:14:11 49° N
SL-16 R/B 3.2 19:07:39 10° S 19:10:53 32° SSE 19:10:53 32° SSE
Cosmos 2297 3.9 19:11:39 10° NNW 19:17:21 71° WSW 19:20:01 32° S
ATLAS 3B R/B 4.0 19:25:55 10° NW 19:31:47 26° N 19:32:34 25° NNE
Cosmos 2058 4.4 19:28:40 10° SW 19:32:26 34° WNW 19:32:53 33° WNW
Spot 2 Rocket 4.2 19:29:04 10° S 19:33:59 52° W 19:38:56 10° NNW
Nadezhda 4 Rocket 4.0 19:34:35 10° SSW 19:40:51 79° W 19:43:41 35° N
ALOS 3.8 19:45:51 10° SSW 19:50:04 33° W 19:54:20 10° NNW
Cosmos 2333 Rocket 3.6 20:02:07 10° WSW 20:07:11 33° NW 20:07:46 32° NW
CZ-4C R/B 4.0 20:03:42 10° NW 20:07:41 29° N 20:07:41 29° N
Lacrosse 5 4.0 20:12:08 10° WNW 20:14:14 22° NW 20:14:14 22° NW
CENTAUR R/B 3.9 20:12:44 10° W 20:18:43 34° NNW 20:19:14 34° NNW
ATLAS 5 CENTAUR R/B 4.2 20:15:34 10° NW 20:17:33 21° NNW 20:17:33 21° NNW
Resurs 01 Rocket 4.3 20:23:48 16° W 20:24:16 16° W 20:27:06 10° NW
Cosmos 2219 Rocket 4.1 20:20:02 10° W 20:24:27 23° NW 20:24:55 23° NNW
Cosmos 2237 Rocket 4.4 20:49:33 10° W 20:52:21 20° WNW 20:52:21 20° WNW
